CAPE
0 0 0 0 0 0 0 0 0 0 0 0 0 0 0 0 0 0 0 0 0 0 0 0 0 0 0 0 0 0 0 0 0 0 0 0 0 0 0 0 0 0 0 0
0 0 0 0 0 0 0 0 0 0 0 0 0 0 0 0 0 0 0 0 0 0 0 0 0 0 0 0 0 0 0 0 0 0 0 0 0 0 0 0 0 0 0 0
0 0 0 0 0 0 0 0 0 0 0 0 0 0 0 0 0 0 0 0 0 0 0 0 0 0 0 0 0 0 0 0 0 0 0 0 0 0 0 0 0 0 0 0
0 0 0 0 0 0 0 0 0 0 0 0 0 0 0 0 0 0 0 0 0 0 0 0 0 0 0 0 0 0 0 0 0 0 0 0 0 0 0 0 0 0 7 0
0 0 0 0 0 0 0 0 0 0 0 0 0 0 0 0 0 0 0 0 0 0 0 0 0 0 0 0 0 0 0 0 0 0 0 0 0 0 0 0 0 0 0 0
0 0 0 0 0 0 0 0 0 0 0 0 0 0 0 0 0 0 0 0 0 0 0 0 0 0 0 0 0 0 0 0 0 0 0 0 0 0 0 0 0 0 0 0
0 0 0 0 0 0 0 0 0 0 0 0 0 0 0 0 0 0 0 0 0 0 0 0 0 0 0 0 0 0 0 0 0 0 0 0 0 0 0 0 0 0 0 0
0 0 0 0 0 0 0 0 0 0 0 0 0 0 0 0 0 0 0 0 0 0 0 0 0 0 0 0 0 0 0 0 0 0 0 0 0 0 0 0 0 0 0 0
0 0 0 0 0 0 0 0 0 0 0 0 0 0 0 0 0 0 0 0 0 0 0 0 0 0 0 0 0 0 0 0 0 0 0 0 0 0 0 0 0 0 0 0
0 0 0 0 0 0 0 0 0 0 0 0 0 0 0 0 0 0 0 0 0 0 0 0 0 0 0 0 0 0 0 0 0 0 0 0 0 0 0 0 0 0 0 0
0 0 0 0 0 0 0 0 0 0 0 0 0 0 0 0 0 0 0 0 0 0 0 0 0 0 0 0 0 0 0 0 0 0 0 0 0 0 0 0 0 0 0 0
0 0 0 0 0 0 0 0 0 0 0 0 0 0 0 0 0 0 0 0 0 0 0 0 0 0 0 0 0 0 0 0 0 0 0 0 0 0 0 0 0 0 0 0
0 1 0 0 0 0 0 0 0 0 0 0 0 0 0 0 0 0 0 0 0 0 0 0 0 0 0 0 0 0 0 0 0 0 0 0 0 0 0 0 0 0 0 0
1 0 0 0 0 0 0 0 0 0 0 0 0 0 0 0 0 0 0 0 0 0 0 0 0 0 0 0 0 0 0 0 0 0 0 0 0 0 0 0 0 0 0 0
0 0 0 0 0 0 0 0 0 1 0 0 0 0 0 0 0 0 0 0 0 0 0 0 0 0 0 0 0 0 0 0 0 0 0 0 0 0 0 0 0 0 0 0
0 0 0 0 0 0 0 0 0 0 0 0 0 0 0 0 0 0 0 0 0 0 0 0 0 0 0 0 0 0 0 0 0 0 0 0 0 0 0 0 0 0 0 0
0 0 0 0 0 0 0 0 0 0 0 0 0 0 0 0 0 0 0 0 0 0 0 0 0 0 0 0 0 0 0 0 0 0 0 0 0 0 0 0 0 0 0 0
0 0 0 0 0 0 0 0 0 0 0 0 0 0 0 0 0 0 0 0 0 0 0 0 0 0 0 0 0 0 0 0 0 0 0 0 0 0 0 0 0 0 0 0
0 0 0 0 0 0 0 0 0 0 0 0 0 0 0 0 0 0 0 0 0 0 0 0 0 0 0 0 0 0 0 0 0 0 0 0 0 0 0 0 0 0 0 0
0 0 3 0 0 0 0 0 0 0 0 0 0 0 0 0 0 0 0 0 0 0 0 0 0 0 0 0 0 0 0 0 0 0 0 0 0 0 0 0 0 0 0 0
0 2 0 0 2 0 0 0 0 0 0 0 0 0 0 0 0 0 0 0 0 0 0 0 0 0 0 0 0 0 0 0 0 0 0 0 0 0 0 0 0 0 0 0
0 0 0 0 1 0 0 0 0 0 0 0 0 0 0 0 0 0 0 0 0 0 0 0 0 0 0 0 0 0 0 0 0 0 0 0 0 0 0 0 0 0 0 0
0 0 0 5 1 2 0 0 0 0 0 0 0 0 0 0 0 0 0 0 0 0 0 0 0 0 0 0 0 0 0 0 0 0 0 0 0 0 0 0 0 0 0 0
0 0 0 0 0 0 0 0 0 0 0 0 0 0 0 0 0 0 0 0 0 0 0 0 0 0 0 0 0 0 0 0 0 0 0 0 0 0 0 0 0 0 0 0
0 0 0 0 0 0 0 0 0 0 0 0 0 0 0 0 0 0 0 0 0 0 0 0 0 0 0 0 0 0 0 0 0 0 0 0 0 0 0 0 0 0 0 0
0 0 0 0 0 0 0 0 0 0 0 0 0 0 0 0 0 0 0 0 0 0 0 0 0 0 0 0 0 0 0 0 0 0 0 0 0 0 0 0 0 1 0 0
CIN
0 0 0 0 0 0 0 0 0 0 0 0 0 0 0 0 0 0 0 0 0 0 0 0 0 0 0 0 0 0 0 0 0 0 0 0 0 0 0 0 0 0 0 0
0 0 0 0 0 0 0 0 0 0 0 0 0 0 0 0 0 0 0 0 0 0 0 0 0 0 0 0 0 0 0 0 0 0 0 0 0 0 0 0 0 0 0 0
0 0 0 0 0 0 0 0 0 0 0 0 0 0 0 0 0 0 0 0 0 0 0 0 0 0 0 0 0 0 0 0 0 0 0 0 0 0 0 0 0 0 0 0
0 0 0 0 0 0 0 0 0 0 0 0 0 0 0 0 0 0 0 0 0 0 0 0 0 0 0 0 0 0 0 0 0 0 0 0 0 0 0 0 0 0 -54 0
0 0 0 0 0 0 0 0 0 0 0 0 0 0 0 0 0 0 0 0 0 0 0 0 0 0 0 0 0 0 0 0 0 0 0 0 0 0 0 0 0 0 0 0
0 0 0 0 0 0 0 0 0 0 0 0 0 0 0 0 0 0 0 0 0 0 0 0 0 0 0 0 0 0 0 0 0 0 0 0 0 0 0 0 0 0 0 0
0 0 0 0 0 0 0 0 0 0 0 0 0 0 0 0 0 0 0 0 0 0 0 0 0 0 0 0 0 0 0 0 0 0 0 0 0 0 0 0 0 0 0 0
0 0 0 0 0 0 0 0 0 0 0 0 0 0 0 0 0 0 0 0 0 0 0 0 0 0 0 0 0 0 0 0 0 0 0 0 0 0 0 0 0 0 0 0
0 0 0 0 0 0 0 0 0 0 0 0 0 0 0 0 0 0 0 0 0 0 0 0 0 0 0 0 0 0 0 0 0 0 0 0 0 0 0 0 0 0 0 0
0 0 0 0 0 0 0 0 0 0 0 0 0 0 0 0 0 0 0 0 0 0 0 0 0 0 0 0 0 0 0 0 0 0 0 0 0 0 0 0 0 0 0 0
0 0 0 0 0 0 0 0 0 0 0 0 0 0 0 0 0 0 0 0 0 0 0 0 0 0 0 0 0 0 0 0 0 0 0 0 0 0 0 0 0 0 0 0
0 0 0 0 0 0 0 0 0 0 0 0 0 0 0 0 0 0 0 0 0 0 0 0 0 0 0 0 0 0 0 0 0 0 0 0 0 0 0 0 0 0 0 0
0 -3 -10 -1 0 0 0 0 0 0 0 0 0 0 0 0 0 0 0 0 0 0 0 0 0 0 0 0 0 0 0 0 0 0 0 0 0 0 0 0 0 0 0 0
-3 0 0 0 0 0 0 0 0 0 0 0 0 0 0 0 0 0 0 0 0 0 0 0 0 0 0 0 0 0 0 0 0 0 0 0 0 0 0 0 0 0 0 0
0 0 0 0 0 0 0 0 0 -47 0 0 0 0 0 0 0 0 0 0 0 0 0 0 0 0 0 0 0 0 0 0 0 0 0 0 0 0 0 0 0 0 0 0
0 0 0 0 0 0 0 0 -59 0 0 0 0 0 0 0 0 0 0 0 0 0 0 0 0 0 0 0 0 0 0 0 0 0 0 0 0 0 0 0 0 0 0 0
0 0 0 0 0 0 0 0 0 0 0 0 0 0 0 0 0 0 0 0 0 0 0 0 0 0 0 0 0 0 0 0 0 0 0 0 0 0 0 0 0 0 0 0
-2 0 0 0 0 0 0 0 0 0 0 0 0 0 0 0 0 0 0 0 0 0 0 0 0 0 0 0 0 0 0 0 0 0 0 0 0 0 0 0 0 0 0 0
0 0 -1 0 0 0 0 0 0 0 0 0 0 0 0 0 0 0 0 0 0 0 0 0 0 0 0 0 0 0 0 0 0 0 0 0 0 0 0 0 0 0 0 0
0 0 -1 0 0 0 0 0 0 0 0 0 0 0 0 0 0 0 0 0 0 0 0 0 0 0 0 0 0 0 0 0 0 0 0 0 0 0 0 0 0 0 0 0
0 -1 0 0 -1 0 0 0 0 0 0 0 0 0 0 0 0 0 0 0 0 0 0 0 0 0 0 0 0 0 0 0 0 0 0 0 0 0 0 0 0 0 0 0
0 0 0 0 -3 -1 0 0 0 0 0 0 0 0 0 0 0 0 0 0 0 0 0 0 0 0 0 0 0 0 0 0 0 0 0 0 0 0 0 0 0 0 0 0
0 0 0 -24 -16 -22 0 0 0 0 0 0 0 0 0 0 0 0 0 0 0 0 0 0 0 0 0 0 0 0 0 0 0 0 0 0 0 0 0 0 0 0 0 0
0 0 0 0 0 0 0 0 0 0 0 0 0 0 0 0 0 0 0 0 0 0 0 0 0 0 0 0 0 0 0 0 0 0 0 0 0 0 0 0 0 0 0 0
0 0 0 0 0 0 0 0 0 0 0 0 0 0 0 0 0 0 0 0 0 0 0 0 0 0 0 0 0 0 0 0 0 0 0 0 0 0 0 0 0 0 0 0
0 0 0 0 0 -21 0 0 0 0 0 0 0 0 0 0 0 0 0 0 0 0 0 0 0 0 0 0 0 0 0 0 0 0 0 0 0 0 0 0 0 0 0 0
Wind_Speed
28 35 42 36 34 31 32 34 35 31 29 30 36 40 37 34 34 35 34 34 34 33 29 26 25 23 24 24 23 22 21 18 17 18 18 20 19 21 20 20 20 21 22 22
32 42 34 31 32 34 33 35 36 31 29 31 33 41 40 38 39 39 40 39 39 35 31 28 27 26 25 25 24 23 23 22 19 20 23 23 22 22 22 23 23 24 23 23
34 33 31 30 32 34 35 36 34 35 30 30 34 42 42 36 36 38 40 40 39 38 37 34 33 32 30 29 27 26 26 25 23 21 23 24 25 26 26 26 27 24 23 22
31 28 29 32 36 34 40 31 31 31 33 42 32 47 37 33 37 35 35 33 34 34 32 32 32 30 29 30 28 28 27 27 26 24 23 24 25 25 25 25 25 25 23 23
31 30 31 34 35 32 37 28 31 33 36 39 38 41 41 35 38 35 32 32 30 26 24 22 22 23 24 25 27 28 28 27 27 26 24 24 26 26 28 27 26 24 22 22
27 23 24 27 25 26 23 25 28 31 35 50 43 42 43 39 34 31 28 26 22 20 19 20 21 21 23 24 25 25 25 26 27 27 26 27 28 28 27 25 23 21 21 22
28 27 24 22 24 22 25 25 35 41 44 52 34 40 49 37 33 31 30 25 21 19 20 21 22 22 22 22 22 23 24 24 24 24 25 25 25 25 25 23 21 19 19 20
33 37 28 24 26 30 27 28 34 44 44 41 32 44 40 31 32 31 26 23 22 22 20 20 19 19 19 20 20 21 21 22 22 22 22 23 22 22 21 20 18 17 18 17
28 33 23 24 23 22 28 35 27 32 31 38 37 38 39 33 30 25 23 22 22 21 20 19 18 19 19 20 20 21 21 21 21 21 21 21 20 19 18 17 16 16 16 16
22 29 24 21 21 24 26 21 32 33 42 46 40 39 38 30 27 23 23 22 21 19 18 16 17 17 18 19 19 20 21 22 22 22 21 21 21 19 18 17 17 17 16 17
25 27 26 22 28 28 25 29 28 28 33 42 44 40 28 30 27 26 23 20 18 16 14 15 15 17 18 19 20 21 21 22 23 22 22 22 21 20 20 19 19 18 17 17
27 26 33 32 26 26 28 30 28 35 38 36 38 39 23 26 23 19 18 15 13 13 14 15 16 17 19 20 21 22 22 22 23 23 22 22 21 21 20 19 19 18 17 17
24 31 38 36 34 31 35 33 32 31 30 38 40 42 27 24 18 17 17 15 15 15 15 17 18 20 21 22 24 24 25 24 24 24 23 23 22 21 21 20 19 19 19 19
22 28 37 43 39 32 40 39 36 36 42 42 41 39 29 24 22 19 18 17 17 17 18 20 23 24 25 25 26 28 28 27 26 25 25 24 23 22 21 20 20 19 19 20
26 33 30 39 39 36 38 40 38 39 44 41 45 42 37 30 26 24 22 20 19 21 23 26 29 28 26 27 29 30 31 30 27 27 26 25 24 22 21 21 20 19 20 20
26 37 37 44 34 39 43 39 36 39 46 44 46 46 30 29 27 27 26 23 26 28 30 31 30 27 27 30 30 30 30 29 27 26 27 25 24 22 22 21 21 21 21 22
29 33 36 46 36 38 46 44 38 38 40 41 50 53 33 35 34 31 28 25 28 33 34 33 27 29 31 29 28 28 28 28 28 28 28 26 24 23 22 22 22 23 24 24
32 30 27 37 35 46 32 31 33 37 41 37 44 44 38 36 34 32 29 31 33 35 36 31 33 33 29 26 26 27 28 29 29 29 28 26 24 24 23 23 24 24 25 26
29 29 35 38 40 41 40 31 27 32 43 35 40 41 38 34 31 35 29 28 31 31 30 33 31 27 24 25 26 28 29 30 30 31 30 27 24 23 23 24 24 24 25 26
31 31 33 37 43 46 37 22 22 20 40 36 30 35 34 30 40 41 33 31 33 34 32 30 25 23 23 24 25 28 30 31 32 32 30 27 24 23 23 23 24 24 25 26
29 31 39 41 44 41 45 38 21 32 35 22 18 25 25 28 30 31 28 29 28 27 24 21 21 22 23 23 26 30 31 33 31 30 29 26 24 23 23 22 23 23 23 23
31 31 34 38 42 49 36 29 34 33 29 29 25 20 19 21 23 24 25 24 21 18 18 19 21 22 23 25 28 31 33 30 29 28 27 25 24 22 21 21 22 21 20 22
28 25 29 28 32 28 26 30 29 32 31 27 23 23 21 22 24 21 22 20 16 17 19 21 23 25 25 26 27 31 31 29 28 28 27 24 23 22 21 21 21 21 20 20
26 25 33 35 40 44 37 36 35 30 30 27 22 22 22 27 21 20 21 20 20 22 22 24 24 27 31 30 30 30 29 27 26 27 26 25 24 24 23 22 22 21 21 21
26 23 26 30 32 32 32 33 33 31 22 25 24 25 24 21 22 24 25 24 26 26 26 27 30 32 35 32 31 30 28 26 27 27 26 24 22 21 21 21 21 20 20 18
14 22 27 34 30 32 37 33 29 26 23 25 25 27 25 23 26 27 30 30 30 31 30 30 32 34 35 33 32 30 29 27 26 27 25 23 22 20 18 17 18 17 16 15
Wind_Direction
246 242 239 243 245 255 253 254 255 261 264 264 261 261 263 268 270 270 271 271 272 273 279 283 288 289 289 289 287 287 287 286 286 290 290 291 290 293 293 295 296 299 300 300
244 244 247 252 250 252 255 253 255 262 266 265 268 264 266 268 269 269 269 270 270 274 278 281 284 288 290 292 295 294 291 288 284 284 289 293 296 296 297 300 300 299 300 301
245 251 248 250 247 248 252 255 257 260 265 269 270 267 266 271 272 271 271 272 274 274 274 277 280 284 288 290 294 295 296 293 291 287 288 292 295 297 299 299 300 299 299 300
253 256 250 248 249 249 251 258 260 262 263 261 269 263 267 272 272 273 273 278 278 278 280 281 282 286 289 291 295 295 296 297 298 295 290 288 289 292 297 300 302 304 305 305
250 253 250 249 252 251 256 262 260 263 263 264 264 266 266 271 270 272 278 282 282 287 289 291 294 296 297 298 299 299 297 297 297 298 296 294 293 295 299 301 302 304 308 311
256 265 258 255 257 254 255 258 263 267 266 259 259 261 267 265 271 276 282 287 289 291 295 297 300 303 303 305 306 306 305 303 302 300 299 297 296 297 298 300 300 303 308 312
252 256 261 260 251 253 256 248 258 260 258 256 266 263 265 271 273 277 281 283 287 293 296 297 300 304 306 309 312 312 311 309 311 310 307 303 301 300 300 300 299 301 307 311
247 250 252 255 255 254 251 252 255 258 259 263 266 262 269 274 277 275 281 282 287 290 296 297 301 307 310 314 316 318 319 319 320 319 317 316 313 308 305 305 305 306 309 314
253 254 263 260 258 254 253 256 262 265 271 265 265 269 274 277 280 278 276 281 285 290 294 297 299 303 309 312 314 316 318 320 323 324 324 323 324 323 319 318 315 314 315 317
269 258 265 262 260 262 259 253 257 261 261 262 267 269 270 275 274 277 278 281 287 290 294 298 301 306 311 315 318 319 319 319 320 320 321 322 322 322 321 320 317 316 318 318
263 264 264 260 255 253 256 256 262 265 263 263 266 270 279 278 279 276 278 283 287 290 294 299 305 310 313 317 319 319 319 319 319 320 320 319 318 318 317 316 315 315 317 318
259 266 257 257 266 267 262 264 258 261 263 266 268 270 288 290 284 276 278 283 288 292 298 303 310 312 314 316 318 320 322 321 319 317 317 317 316 315 314 314 315 316 316 318
265 262 258 262 264 265 260 260 261 265 272 265 266 270 282 287 288 281 278 280 285 291 296 302 309 310 309 310 312 313 315 316 318 317 315 314 313 312 311 312 313 314 314 315
277 267 260 259 267 265 261 261 261 261 262 265 265 271 277 280 282 277 278 280 282 288 295 301 303 304 306 306 308 309 309 310 311 313 312 312 310 308 308 308 309 310 311 312
280 272 274 271 274 271 267 262 258 258 259 262 267 268 271 276 276 277 279 277 277 287 295 298 299 300 305 306 307 308 308 308 309 308 308 308 309 308 307 305 305 308 309 310
279 271 275 271 283 272 267 265 264 260 261 264 267 271 282 283 282 280 276 274 277 285 293 297 299 299 301 306 308 310 310 310 309 308 307 307 307 307 304 303 302 303 305 307
276 276 273 268 279 282 268 264 265 267 264 264 264 267 277 278 279 280 276 274 277 285 293 297 298 301 303 307 309 311 312 313 312 309 309 307 305 305 304 302 300 299 300 303
274 274 277 272 278 268 280 285 272 269 270 269 270 273 277 278 279 281 279 278 280 285 290 293 296 300 303 308 310 312 313 314 314 312 311 308 305 304 303 302 301 301 301 301
268 270 272 273 270 275 278 287 286 271 271 275 272 273 275 280 283 280 281 282 284 288 290 295 298 301 306 308 311 313 314 315 314 314 313 311 308 304 303 303 303 304 304 304
266 266 268 271 270 268 272 286 298 291 277 278 279 278 278 278 275 279 283 283 285 287 290 293 297 303 306 310 314 315 315 316 313 315 315 314 311 307 305 305 304 306 306 306
270 267 263 268 269 274 269 274 283 274 281 295 298 289 282 278 282 290 293 291 291 290 292 295 299 302 307 314 316 312 313 313 318 318 318 318 316 312 309 309 309 308 308 309
268 271 273 269 269 269 276 276 265 276 286 288 294 294 293 293 296 295 296 297 296 294 297 299 301 305 309 313 313 312 312 318 320 319 320 319 318 317 316 312 311 311 311 309
277 274 278 278 274 281 281 284 283 280 285 286 287 290 295 295 296 303 300 297 297 297 299 303 305 306 310 312 315 313 316 319 318 317 315 318 319 318 315 311 309 309 309 307
288 288 283 285 281 274 280 281 279 285 281 284 289 296 296 291 302 300 298 297 297 296 301 303 306 306 305 307 311 314 316 317 318 316 314 313 313 312 311 310 307 306 305 305
290 291 288 289 289 287 280 286 283 279 285 284 291 291 296 301 299 296 292 294 294 295 299 302 303 304 302 305 309 312 313 313 313 313 313 312 312 312 312 312 310 310 312 310
294 285 285 291 297 284 273 286 282 276 281 286 290 292 296 297 295 296 294 295 296 295 297 300 301 302 302 303 306 308 310 309 309 308 309 309 309 309 310 311 313 321 325 327